Location: Arcadia
(34.1397°N, 118.0353°W)
Time: 23:12:18
(UTC+00:00)

Lacrosse 5 rocket - Pass Details

Date: 08 September 2024
Orbit: 430 x 563 km, 57.0° (Epoch: 13 October)

Event Time Altitude Azimuth Distance (km) Brightness Sun altitude
Exits shadow 12:23:35 - 187° (S) 2,045 4.0 -14.5°
Reaches altitude 10° 12:24:56 10° 177° (S) 1,560 3.5 -14.2°
Maximum altitude 12:27:46 23° 123° (ESE) 966 3.1 -13.6°
Drops below altitude 10° 12:30:33 10° 68° (ENE) 1,535 5.1 -13.1°
Sets 12:32:54 0° 54° (NE) 2,399 6.0 -12.6°
